GFSMA_sfc_temp_000.txt.gz
Temp
91 92 88 92 91 93 92 89 91 91 90 91 91 90 92 92 92 95 95 82 81 81 83 83 83 83 82 82 82 82 82 81 81 81 81 81 81 81 81 81 80 80 80
91 92 89 91 92 93 87 89 88 89 89 90 90 90 90 92 92 92 95 93 81 81 82 83 83 83 83 83 83 81 82 82 81 81 81 81 80 80 81 80 80 80 80
89 86 86 89 87 87 86 88 87 88 89 91 89 90 91 90 92 90 92 94 92 81 81 82 82 82 83 83 83 82 82 81 81 81 80 80 80 80 80 80 80 80 79
85 81 84 86 88 88 89 88 86 85 84 89 88 89 90 91 91 90 92 92 94 96 84 81 81 81 82 83 83 83 82 81 81 80 80 80 80 80 79 79 79 79 79
85 81 80 83 82 85 85 85 86 86 83 83 88 90 89 89 91 94 92 91 92 93 95 83 80 81 82 84 83 83 82 81 80 80 80 80 80 80 79 79 79 78 78
86 86 87 85 84 85 83 83 82 86 86 86 87 88 90 91 92 92 92 93 93 93 94 92 90 88 80 82 83 83 83 82 81 80 80 80 79 79 79 78 78 78 78
86 84 82 85 83 83 85 84 83 80 83 85 82 84 86 88 88 90 92 92 92 93 93 93 92 94 92 80 81 81 82 83 82 81 80 79 79 78 78 77 77 77 78
86 85 84 86 85 86 83 82 80 80 83 82 79 82 80 85 90 91 90 91 91 93 93 91 91 90 91 94 89 80 81 81 82 82 81 79 79 78 78 77 77 77 77
85 84 84 84 84 82 83 81 78 77 78 82 80 77 75 77 86 92 88 90 89 91 92 93 92 90 89 91 90 87 80 79 81 82 82 80 79 78 78 77 77 76 76
84 84 83 83 82 83 79 80 79 77 77 77 79 79 81 84 76 77 86 90 89 89 89 92 93 91 90 91 89 86 82 79 79 80 81 81 80 79 79 78 78 77 76
83 84 83 81 81 83 80 78 76 77 76 76 77 77 77 78 78 75 77 82 88 91 92 91 93 94 92 92 92 88 80 78 78 78 79 80 80 80 80 80 79 78 78
85 84 82 81 80 80 80 79 78 77 76 75 76 76 75 72 74 71 74 79 83 84 89 93 92 92 94 94 90 83 79 78 77 77 77 77 79 80 81 82 81 81 80
84 82 79 79 81 79 80 79 77 76 74 75 75 74 76 76 77 76 72 75 75 84 86 91 94 94 94 94 93 83 81 76 75 74 74 74 76 78 79 80 81 81 82
83 80 80 80 80 80 80 79 80 81 79 77 76 74 73 75 76 75 70 69 71 75 85 82 87 91 94 93 92 80 89 74 74 72 71 72 73 74 76 77 77 78 79
83 82 80 79 79 80 79 77 80 79 78 77 76 76 74 74 75 75 74 72 72 69 72 80 86 91 92 94 90 92 90 80 73 71 70 70 71 72 73 74 74 74 74
80 79 80 80 80 80 79 78 78 77 75 76 77 76 76 78 77 75 74 72 73 72 72 83 85 84 88 88 90 89 89 79 73 71 69 69 69 70 71 71 71 71 71
79 79 79 79 79 79 79 77 77 78 76 75 76 74 74 75 76 77 75 74 73 74 73 82 87 88 83 86 88 89 89 89 90 71 70 68 68 68 69 70 69 69 70
80 79 79 79 79 79 79 77 76 76 74 73 73 73 72 76 72 74 75 75 74 75 75 74 81 85 83 84 85 83 84 93 91 76 70 68 67 67 67 67 67 67 67
79 80 79 78 78 79 78 77 76 75 75 74 73 69 68 69 68 69 73 74 77 76 76 75 77 85 86 88 83 82 83 86 91 75 68 68 67 67 66 65 64 63 63
79 79 79 78 79 78 78 77 76 75 74 73 71 65 63 65 68 69 69 72 74 75 76 75 76 81 84 85 82 78 77 86 87 92 83 80 75 68 66 64 63 63 61
80 79 79 79 80 80 82 76 75 75 72 71 69 63 62 63 64 64 63 69 69 72 74 74 73 79 81 77 75 81 77 83 84 90 90 91 88 87 84 67 73 66 62
79 79 79 79 78 81 63 65 68 75 72 69 65 61 61 62 62 63 63 62 66 68 71 73 73 74 76 78 80 79 79 80 78 80 86 88 92 90 92 93 78 70 63
79 78 78 78 77 78 65 64 65 75 72 69 68 63 60 61 61 62 62 61 62 65 67 73 72 74 76 78 79 76 77 77 75 87 85 85 90 88 90 88 67 65 62
77 77 77 78 78 79 63 63 64 74 70 70 68 67 62 60 61 60 58 59 62 65 71 72 75 76 78 80 78 78 78 78 80 85 78 81 90 88 89 91 66 63 61
77 77 78 77 77 77 61 61 63 75 70 70 71 67 66 62 60 59 57 57 59 66 70 66 68 69 68 67 72 74 74 70 68 77 83 82 87 88 88 88 83 63 60
78 81 79 79 74 77 65 59 64 70 68 69 71 69 61 60 56 55 56 56 57 61 71 70 74 69 67 72 65 75 77 74 73 75 83 81 85 85 77 83 81 77 75

GFSMA_sfc_temp_003.txt.gz
Temp
84 88 90 91 90 92 87 86 84 82 87 91 93 91 92 93 94 94 95 82 81 82 83 83 82 82 82 82 82 81 82 82 81 81 81 81 81 81 81 81 81 81 80
86 86 86 90 86 88 91 89 87 88 88 90 90 92 90 91 92 92 96 88 81 81 82 83 83 83 83 83 82 82 82 82 82 81 81 81 81 81 81 81 81 80 80
89 82 82 87 89 88 86 87 86 87 86 91 90 91 90 90 91 91 92 93 88 81 81 82 82 82 83 83 83 82 82 81 81 81 81 80 80 80 80 80 80 80 80
88 83 85 86 85 84 89 88 88 87 88 88 88 89 86 91 91 90 91 92 94 95 83 81 81 82 82 83 83 83 82 81 81 81 80 80 80 80 80 79 79 79 79
88 86 86 86 85 86 87 86 85 83 84 85 88 88 90 90 91 94 91 91 92 93 94 83 80 81 82 84 83 83 82 82 81 80 80 80 80 80 80 79 79 79 79
88 83 83 85 85 82 83 85 83 84 81 81 86 85 84 91 92 91 92 93 93 93 94 92 86 86 81 83 83 83 82 82 81 80 80 80 79 79 79 79 78 78 78
86 84 84 85 83 83 84 83 84 81 81 82 77 80 84 86 88 90 93 93 92 92 92 92 93 92 87 81 81 82 83 82 82 81 80 79 79 79 78 78 77 78 78
86 87 86 87 88 88 85 83 81 77 79 84 76 74 70 81 84 87 91 90 91 93 92 92 91 90 91 87 86 81 81 82 82 82 81 79 79 78 78 77 77 77 77
89 87 86 85 84 85 86 83 79 77 73 79 80 72 70 73 82 88 88 89 88 90 92 92 91 90 90 91 89 85 80 80 81 82 82 80 79 78 78 78 77 77 77
87 86 85 84 83 84 82 80 81 78 74 73 77 78 77 78 71 71 80 80 89 88 89 91 93 91 90 91 89 87 81 79 79 81 81 81 80 79 79 78 78 77 77
86 86 85 83 80 84 81 80 78 77 76 72 73 73 74 74 75 71 70 79 85 74 90 91 92 93 91 91 91 88 81 79 78 79 80 80 80 80 80 80 79 78 78
88 86 84 82 81 81 81 81 80 77 77 75 74 73 71 70 72 72 69 74 76 79 79 87 90 92 93 94 91 84 81 78 77 77 77 78 79 80 81 81 81 81 80
86 84 81 81 82 81 80 80 80 78 79 77 76 74 73 72 73 72 71 70 70 73 80 80 78 80 82 93 93 84 81 77 75 75 74 75 76 78 79 81 81 82 82
85 83 82 82 81 81 81 81 81 82 79 77 77 77 75 74 73 73 71 70 68 68 68 76 80 71 73 84 92 81 91 75 74 73 72 73 73 75 76 77 78 79 79
86 84 82 81 82 82 81 80 82 80 79 75 76 75 75 77 75 72 72 72 68 65 65 70 75 82 86 91 90 92 90 80 74 72 71 71 71 72 73 74 74 75 75
82 81 81 82 82 81 81 80 80 81 78 79 79 75 75 78 79 78 72 71 71 69 66 71 72 81 85 83 88 84 90 81 73 72 71 70 70 71 71 72 72 72 72
81 81 81 80 81 80 81 79 77 78 76 75 75 75 75 75 76 76 73 71 70 71 68 73 72 77 76 79 73 82 89 88 90 71 71 70 68 69 70 70 70 70 70
82 81 81 80 80 81 80 79 77 78 76 72 75 73 72 75 70 70 68 70 70 70 69 67 72 78 79 80 79 80 86 89 90 79 71 69 68 67 67 67 67 67 68
81 81 81 80 79 80 79 78 78 76 74 75 75 73 71 69 64 62 62 68 69 70 69 68 69 77 82 82 81 81 82 84 86 78 70 69 68 67 66 65 65 64 64
81 80 80 80 80 80 80 80 78 76 75 76 75 72 71 68 63 60 60 61 63 67 68 68 69 71 75 81 82 73 72 81 84 89 82 80 72 68 67 65 64 64 62
81 81 80 81 81 82 84 77 78 77 75 74 75 74 72 67 65 62 60 59 59 59 60 68 68 69 73 73 72 81 72 77 80 87 83 85 84 84 80 67 73 66 63
81 81 80 80 80 83 66 67 71 75 75 73 73 73 71 67 65 63 63 62 62 59 59 59 68 68 71 74 75 75 74 75 73 82 83 77 83 86 88 88 77 72 63
81 80 79 79 79 80 64 67 69 74 74 73 72 71 72 70 66 65 62 63 63 63 63 63 60 66 72 75 77 75 76 76 76 82 78 80 88 80 87 87 70 68 64
79 78 79 79 79 80 63 64 66 73 73 73 71 72 69 68 68 64 61 60 62 63 64 68 70 67 69 78 78 75 76 76 77 80 77 73 75 80 89 91 68 66 62
79 78 79 75 78 76 61 61 65 75 74 72 72 72 72 68 65 60 59 59 61 61 64 62 63 63 67 66 73 76 70 72 71 75 77 74 80 84 80 82 77 63 61
79 81 79 80 72 78 69 59 64 76 73 73 73 70 66 67 59 56 57 58 57 59 59 61 66 66 66 71 64 72 75 69 71 69 80 73 72 71 73 81 76 73 72

GFSMA_sfc_temp_006.txt.gz
Temp
83 84 85 85 84 84 83 83 84 84 83 85 86 85 87 86 87 85 83 82 81 82 83 83 82 82 82 82 82 82 81 81 81 81 81 80 80 81 80 80 80 80 80
81 83 81 84 83 82 84 80 80 81 81 83 84 85 85 86 85 85 86 81 81 81 82 83 83 82 82 83 82 82 81 81 81 80 80 80 80 80 80 80 80 80 80
85 83 81 80 81 82 83 82 81 81 82 84 82 84 85 83 83 84 85 83 82 82 82 82 82 82 82 83 82 82 81 81 81 81 80 80 80 80 80 80 80 79 79
86 81 80 81 82 82 81 79 78 77 79 80 80 81 82 83 84 84 84 85 84 85 82 82 81 81 82 83 83 82 81 81 80 80 80 80 80 80 79 79 79 79 79
86 81 81 81 81 80 80 80 80 77 75 76 79 82 82 81 85 90 86 85 86 86 82 82 80 80 82 84 83 82 82 81 80 80 80 80 79 79 79 79 78 78 78
85 81 79 78 78 77 76 75 75 75 76 77 80 80 78 81 81 82 82 88 87 87 88 83 80 81 81 83 83 82 82 82 80 80 80 79 79 79 79 78 78 78 78
83 82 79 79 79 77 78 78 78 76 76 77 74 75 77 79 81 83 85 83 84 87 86 85 82 82 81 80 81 82 82 82 81 81 80 79 78 78 78 78 77 77 77
82 84 83 81 80 80 78 79 78 75 75 73 70 69 67 73 78 82 83 84 85 86 86 85 84 82 83 80 80 81 81 82 82 81 80 79 78 78 78 77 77 77 77
84 83 83 81 80 79 78 76 76 74 71 74 73 69 65 65 68 77 79 80 83 83 85 85 85 84 82 81 80 81 80 80 81 82 81 80 78 78 78 77 77 76 76
83 83 82 81 79 78 76 76 76 74 72 70 72 73 71 69 65 66 75 77 77 80 80 82 85 85 83 83 84 81 81 79 80 81 82 81 79 78 78 78 77 77 76
81 83 83 80 78 78 76 76 75 74 72 70 69 69 70 68 69 66 65 71 77 75 73 72 71 76 86 84 84 83 80 78 78 79 80 80 80 80 80 79 79 78 78
81 80 80 79 78 77 76 76 75 75 73 72 71 70 68 66 66 66 65 67 69 74 73 71 71 72 73 82 86 84 81 78 77 77 77 78 80 80 81 81 81 80 80
80 77 79 79 77 77 77 76 74 73 73 72 71 69 69 69 69 68 66 65 65 71 70 72 71 70 71 72 73 77 81 78 76 75 74 75 77 78 79 80 81 81 81
79 82 80 80 78 78 78 77 75 75 74 72 72 71 70 69 70 68 66 64 62 65 71 70 77 72 72 70 71 74 73 75 74 73 73 73 74 75 76 77 78 78 79
80 78 80 79 78 77 77 76 75 74 75 73 73 71 71 72 73 70 69 67 63 60 62 70 69 74 71 71 71 73 73 77 73 72 71 71 72 73 73 74 75 75 75
80 79 79 78 77 77 77 75 74 74 72 73 72 71 71 71 71 72 70 67 65 63 60 70 73 75 76 74 73 74 77 76 76 72 71 70 71 71 72 72 72 73 73
80 79 78 77 76 76 76 75 74 73 71 72 72 70 71 69 69 68 67 65 62 61 60 67 72 75 73 72 73 75 76 74 78 71 71 70 69 70 71 71 71 71 71
79 78 77 76 75 76 75 74 73 74 72 71 71 70 70 71 66 66 64 61 60 60 60 62 68 70 71 73 72 73 74 76 72 73 70 69 69 69 68 68 68 68 68
78 78 77 76 75 75 75 74 74 73 73 73 72 70 70 68 65 65 63 60 60 59 59 59 63 68 71 74 71 73 72 73 72 70 69 69 69 68 67 66 65 65 64
77 77 76 76 75 76 76 75 74 72 70 73 72 70 70 68 66 64 62 60 59 57 58 58 59 63 66 72 69 68 69 71 73 81 78 73 70 68 67 65 64 64 62
78 78 76 76 76 77 80 75 75 72 71 71 71 70 70 70 68 65 62 60 59 57 57 57 57 59 62 67 69 72 68 70 71 75 72 75 75 73 71 66 69 67 64
78 77 76 76 76 79 69 71 71 72 72 70 69 69 68 68 67 66 64 64 62 58 56 56 57 56 58 63 67 69 68 67 66 76 72 71 74 76 78 75 71 69 64
77 76 75 75 75 74 66 67 68 70 70 70 68 67 66 67 66 67 65 64 64 64 62 59 57 58 58 61 66 67 67 67 71 75 71 69 73 72 77 81 71 67 66
75 74 74 75 74 75 64 62 65 69 69 69 69 68 66 66 67 66 65 63 63 63 64 65 62 62 63 64 64 68 69 69 70 71 73 67 71 71 73 76 70 69 66
75 73 75 74 72 73 62 59 60 67 68 68 69 68 67 65 65 61 61 60 58 61 64 63 61 61 61 63 63 65 66 65 66 70 72 69 70 70 70 71 72 67 65
74 76 75 74 72 73 58 58 61 60 62 65 67 67 62 61 56 54 57 57 56 58 58 60 61 63 61 61 62 62 65 65 65 66 75 69 69 68 67 75 68 65 62

GFSMA_sfc_temp_009.txt.gz
Temp
76 78 77 77 78 77 77 76 77 77 77 79 80 80 81 80 81 79 76 81 81 82 82 83 82 82 82 82 81 81 81 81 80 80 80 81 80 80 80 80 80 80 79
77 76 76 76 76 76 76 75 75 75 75 76 78 80 80 83 79 80 78 77 80 81 82 82 82 82 82 82 82 82 81 81 80 80 80 80 80 79 80 80 80 80 79
78 75 75 75 75 75 76 76 75 75 75 77 76 78 78 82 80 79 79 78 81 82 82 81 82 82 82 82 82 82 81 80 80 80 80 79 79 79 79 79 79 79 79
78 75 75 75 76 76 75 73 73 72 72 72 73 74 75 77 79 79 83 80 79 82 82 82 81 81 82 82 82 82 81 80 80 80 79 79 79 79 79 79 79 79 78
79 75 75 75 76 73 73 72 73 71 71 71 72 74 73 73 74 79 81 79 81 80 79 81 81 80 82 83 83 82 81 80 80 80 80 79 79 79 79 78 78 78 78
79 75 73 73 73 72 71 71 71 71 71 70 75 75 74 73 75 72 74 81 82 85 82 80 79 80 81 83 83 82 82 81 80 80 79 79 79 78 78 78 77 78 77
78 75 73 74 72 72 72 72 72 71 69 70 67 67 68 72 73 75 75 73 75 81 78 79 79 79 80 81 80 81 82 81 81 80 79 79 78 78 77 77 77 77 77
78 78 74 73 72 71 70 70 69 67 68 69 65 64 61 65 69 73 74 75 73 76 75 84 80 79 79 79 80 81 81 81 82 81 80 79 78 77 77 77 76 77 77
77 75 75 73 72 70 69 69 69 68 65 67 68 64 61 59 63 69 70 71 74 70 71 74 76 77 77 77 79 80 80 79 80 81 81 79 78 77 77 77 77 76 76
75 76 75 73 71 69 69 69 71 68 67 64 66 67 65 64 61 60 66 71 72 75 72 72 71 71 71 72 78 79 80 79 79 80 81 80 79 78 78 78 77 77 76
74 76 74 72 70 69 68 69 68 68 67 65 64 64 64 64 64 62 62 65 71 68 70 70 70 69 69 71 71 74 77 79 78 79 79 80 80 80 79 79 79 78 78
69 72 73 71 70 69 69 68 68 68 66 66 65 65 63 62 62 61 60 61 62 66 67 69 69 68 71 70 74 74 73 72 75 77 77 78 79 80 80 81 80 80 79
68 69 71 70 69 69 70 68 68 67 67 66 65 64 64 63 64 63 61 61 61 65 63 67 69 70 71 69 69 72 71 72 72 73 74 75 77 78 79 80 80 80 81
68 70 70 71 71 71 70 69 68 67 67 66 66 65 64 63 63 63 61 60 60 60 66 63 72 68 69 69 70 73 71 70 70 70 71 73 74 75 77 78 78 79 79
72 71 72 71 70 70 69 68 66 66 66 66 65 65 63 63 63 62 61 60 58 54 56 62 62 71 70 70 71 72 71 70 70 70 69 70 71 73 74 75 75 75 75
70 70 70 70 70 69 69 68 66 67 66 65 65 64 64 63 61 61 60 59 58 57 55 61 63 68 71 73 73 72 73 72 70 71 68 68 69 71 72 72 73 73 73
70 70 70 69 69 68 68 67 67 67 66 64 65 64 64 63 60 60 59 57 56 55 55 60 62 67 68 69 72 72 71 73 71 70 69 68 68 69 70 71 71 71 72
70 70 69 68 68 69 68 67 67 68 66 64 64 63 64 66 61 60 58 57 55 56 56 54 59 62 62 66 70 69 71 76 72 73 70 66 66 67 68 68 68 69 69
69 69 69 68 68 68 68 68 66 66 65 65 64 63 63 62 60 59 58 57 56 57 56 55 56 61 61 63 64 68 68 69 72 74 67 67 66 66 66 65 66 65 65
69 68 68 68 68 68 68 68 67 65 66 66 65 64 64 62 61 59 58 57 56 55 54 54 55 57 59 63 62 62 64 67 69 76 71 71 71 69 67 66 65 65 63
69 69 68 68 68 69 73 68 69 69 67 64 64 64 64 65 67 63 59 59 56 57 54 54 55 57 58 59 57 60 61 66 67 69 68 68 69 69 70 66 68 67 64
69 68 68 68 68 72 69 70 67 64 64 63 62 62 62 66 65 66 66 66 63 57 55 54 56 55 57 57 59 58 59 62 62 70 69 70 70 69 70 69 69 67 63
68 68 67 67 67 66 66 66 67 63 62 61 61 61 61 64 64 61 63 64 64 63 63 59 56 57 57 59 59 58 59 60 64 71 68 67 69 70 76 76 67 65 63
67 66 66 67 66 67 64 63 63 61 61 62 62 61 61 61 61 60 58 57 58 59 60 62 61 61 61 62 60 60 60 60 64 66 68 65 67 71 71 72 68 66 63
66 66 67 66 65 64 60 59 60 60 59 59 61 62 62 60 59 58 55 54 56 58 63 62 61 61 61 61 60 58 58 58 59 63 67 66 68 67 68 70 70 64 63
67 65 65 65 64 61 60 59 59 58 56 58 59 61 61 57 55 54 54 54 56 55 57 59 60 60 61 60 62 60 59 59 61 61 69 66 66 65 63 67 68 67 64

GFSMA_sfc_temp_012.txt.gz
Temp
74 75 74 75 74 74 74 74 74 74 75 76 76 76 77 75 75 77 75 81 81 81 82 83 82 82 81 81 81 81 81 81 80 80 80 80 80 80 80 80 80 79 79
76 74 74 75 74 73 74 74 73 73 73 75 76 77 76 78 76 76 76 77 81 81 82 82 83 82 82 82 81 81 81 81 80 80 80 80 80 79 79 80 79 79 79
76 75 73 73 74 73 74 74 74 73 73 74 74 75 75 75 80 79 76 76 79 81 82 83 82 81 82 82 82 81 81 80 80 80 79 79 79 79 79 79 79 79 79
78 74 71 73 73 73 73 70 71 70 70 70 70 71 72 73 74 74 73 79 77 80 81 82 82 81 81 82 82 81 81 80 80 79 79 79 79 79 79 78 78 78 78
77 73 72 73 72 70 70 70 70 70 69 69 71 72 71 70 72 77 74 73 76 74 76 81 81 81 82 84 83 82 81 80 79 79 79 79 79 79 78 78 78 78 77
75 74 74 72 72 71 70 70 69 69 69 68 72 72 69 69 70 70 72 76 74 76 77 73 77 80 80 82 82 82 82 81 80 79 79 79 78 78 78 78 77 77 77
76 73 72 72 71 70 69 69 69 68 67 68 65 65 66 68 68 69 70 71 72 73 72 74 73 73 77 80 81 81 81 81 81 80 79 78 78 78 77 77 77 77 77
76 76 72 71 70 68 67 67 67 65 66 67 64 62 60 63 66 72 70 71 71 71 72 73 73 74 73 74 79 81 82 82 81 81 80 79 78 77 77 77 76 76 76
76 73 72 70 69 67 66 67 67 66 63 65 66 63 60 57 61 65 67 68 68 68 69 71 72 71 70 69 71 73 77 79 81 81 81 79 78 77 77 77 76 76 76
73 73 71 70 68 67 67 67 68 66 65 62 64 66 64 63 58 58 63 66 67 68 68 69 72 72 70 69 72 73 74 75 79 81 81 80 79 78 78 77 77 76 76
70 73 70 69 68 66 66 67 66 65 65 63 63 62 62 62 61 59 57 61 64 64 66 67 68 70 71 68 68 70 74 74 75 75 79 80 80 80 79 79 78 78 77
67 69 70 68 68 67 67 66 66 66 65 64 63 62 61 60 59 59 57 58 59 62 63 65 66 67 69 67 72 74 74 74 74 73 72 73 77 80 81 81 80 79 79
65 67 67 67 67 67 67 66 66 65 65 64 63 62 62 61 61 61 59 57 57 59 60 62 64 66 69 69 70 74 75 74 73 71 71 72 73 75 80 81 80 80 81
66 67 67 68 68 68 67 66 65 65 65 64 64 63 62 61 61 60 59 56 53 54 56 58 61 61 63 64 69 74 71 70 71 70 69 69 70 72 75 78 78 78 79
68 68 69 68 68 68 67 66 64 65 65 64 64 63 62 61 60 60 58 57 54 49 50 54 55 61 65 64 67 69 70 71 70 70 68 69 69 70 72 74 75 75 74
67 67 68 68 67 67 67 65 64 64 63 63 63 63 62 61 60 59 58 57 55 53 51 54 56 61 63 65 67 68 70 72 70 69 69 68 67 69 69 70 72 72 73
67 67 67 67 67 67 67 65 64 65 64 63 63 62 62 61 59 59 58 56 55 54 52 55 55 60 60 61 63 63 66 68 70 68 68 68 67 67 68 69 69 70 71
66 67 67 66 66 66 65 65 64 65 64 63 63 62 62 64 59 58 57 56 55 55 54 55 58 57 57 61 61 61 65 69 69 71 68 68 67 67 67 67 67 68 69
67 66 66 65 66 66 65 65 65 65 64 63 63 61 61 61 59 58 57 56 56 56 55 56 56 58 58 60 59 60 61 63 67 71 67 67 67 66 65 64 64 64 64
66 65 65 66 66 66 66 66 65 63 63 66 64 62 62 61 60 59 58 58 57 55 56 56 56 57 56 60 59 56 57 60 61 69 72 70 69 68 66 64 64 64 62
66 66 66 65 66 66 70 66 65 65 63 63 63 63 62 63 66 62 59 58 56 56 57 58 57 59 57 59 56 61 57 59 61 62 64 67 68 69 72 66 67 66 63
65 65 65 65 65 69 68 66 66 63 63 62 61 61 61 65 64 65 65 64 62 57 57 56 58 57 58 59 61 58 57 56 54 65 63 66 67 67 71 72 69 67 63
65 65 65 65 65 65 64 63 65 61 61 60 59 59 60 62 63 61 62 63 62 63 63 58 56 57 56 59 60 57 57 56 57 63 61 61 67 67 72 73 66 64 63
65 64 64 64 63 65 63 61 63 61 60 59 59 59 59 59 59 59 57 56 56 56 56 58 59 61 62 63 61 58 57 57 59 61 61 57 65 67 71 71 67 65 62
63 63 64 64 62 63 60 61 60 59 58 57 58 59 59 58 59 59 55 54 53 54 60 60 60 60 60 61 60 58 56 55 54 57 62 59 65 64 66 68 70 65 62
66 63 62 62 62 62 58 58 58 57 55 55 57 58 58 57 55 54 52 51 53 56 54 55 57 58 60 60 61 59 58 55 55 55 64 61 64 64 62 66 68 67 64

GFSMA_sfc_temp_015.txt.gz
Temp
74 72 73 72 73 73 73 73 72 72 74 75 75 75 75 75 74 75 73 79 79 80 82 83 82 82 81 81 81 81 80 80 80 80 80 80 80 80 79 79 79 79 79
75 73 72 73 72 72 72 72 72 72 72 73 74 75 74 74 77 76 75 73 81 80 81 83 82 82 82 82 81 81 81 81 80 80 80 79 79 79 79 79 79 79 79
74 73 73 71 72 72 73 72 72 72 71 72 72 73 73 73 74 75 75 76 74 81 82 81 82 81 82 83 82 81 81 80 80 80 79 79 79 79 79 79 79 79 79
73 72 70 70 72 70 71 70 70 70 70 69 69 70 70 71 72 73 73 73 74 77 78 82 81 81 81 82 83 82 81 80 80 79 79 79 79 79 78 78 78 78 78
75 74 71 71 72 70 70 70 70 69 68 68 69 70 69 69 70 74 71 72 72 74 74 79 80 81 83 84 82 82 81 80 79 79 79 79 79 78 78 78 78 78 77
74 72 72 73 71 70 69 68 68 68 67 67 70 69 67 67 67 68 69 72 72 72 72 73 74 75 80 82 82 82 82 81 80 79 79 79 78 78 78 78 77 77 77
74 73 71 71 70 68 67 68 67 67 66 66 64 64 64 65 67 68 69 68 70 71 71 71 72 73 74 79 81 81 82 82 81 80 79 78 78 78 77 77 77 77 77
74 73 71 69 69 67 66 66 66 64 64 65 63 60 58 62 64 67 67 69 68 69 70 72 71 72 72 72 74 78 80 81 81 81 80 79 78 77 77 76 76 76 76
76 74 70 68 67 65 65 65 65 64 62 63 64 62 57 56 59 63 65 65 66 65 66 68 71 71 71 71 72 73 76 76 79 81 81 80 78 77 77 77 76 76 76
71 71 70 68 67 65 65 65 66 64 63 61 62 65 63 62 57 56 61 62 64 66 64 65 66 69 70 69 72 75 75 75 76 77 79 80 80 78 78 77 77 76 76
69 70 69 67 66 65 65 65 65 64 63 62 61 61 61 60 60 58 56 58 61 62 63 63 64 66 67 68 68 70 74 74 74 75 77 78 80 81 80 79 78 77 77
65 68 69 67 66 65 65 65 65 64 63 62 62 61 60 59 58 57 56 56 56 59 61 62 62 63 64 64 70 72 73 73 74 74 74 75 76 79 81 81 80 79 79
63 65 66 65 65 65 65 64 64 63 63 62 62 61 61 60 60 59 57 56 55 56 58 58 61 60 64 61 62 69 71 70 71 72 72 72 73 75 77 79 80 81 80
64 65 65 66 66 67 66 65 63 63 63 62 62 61 61 60 60 59 58 54 51 51 53 56 58 58 58 59 66 69 65 68 69 69 70 70 71 72 74 75 75 78 79
66 66 66 66 66 66 66 65 63 63 63 62 62 62 60 60 59 59 57 56 52 47 48 53 54 58 58 59 62 64 63 67 67 68 69 68 69 70 71 72 72 72 74
66 65 65 66 66 66 65 64 63 63 62 62 62 61 61 60 59 58 57 56 54 51 49 52 54 56 58 62 63 62 63 66 66 66 67 68 68 69 69 70 70 70 71
65 65 65 65 65 65 65 63 63 63 62 61 61 61 61 61 59 58 57 56 54 53 51 52 54 56 55 57 60 60 61 61 62 66 67 68 67 67 68 69 69 69 69
64 65 65 65 65 65 64 63 63 63 63 62 62 61 61 63 60 58 57 56 55 54 53 52 54 56 55 58 59 57 61 65 62 66 66 66 67 66 66 66 66 66 67
65 66 65 64 64 65 64 64 63 63 62 62 62 61 61 60 59 58 57 56 56 57 54 55 57 61 61 59 57 58 58 59 63 66 66 66 66 66 65 64 63 63 63
65 64 64 65 65 65 65 64 63 63 62 63 62 61 61 60 60 59 58 58 57 56 54 55 57 60 60 60 58 55 55 61 60 65 66 65 65 66 66 64 64 64 61
67 66 65 65 64 65 67 64 64 63 62 62 62 61 61 63 65 62 59 58 57 56 55 57 56 58 57 58 56 60 58 60 61 63 63 60 62 64 69 66 67 66 63
67 65 64 64 64 67 66 65 65 62 62 61 60 60 60 64 63 65 65 64 61 56 56 56 58 56 56 56 59 58 58 56 54 65 60 60 62 63 68 70 69 65 63
66 66 65 64 64 64 63 63 65 61 60 59 58 58 58 61 62 60 61 62 62 62 62 57 55 55 54 58 58 56 58 56 56 62 61 58 61 60 66 70 66 64 62
65 66 65 63 63 64 61 61 63 61 59 59 58 58 57 57 58 58 57 55 55 55 55 57 55 56 58 60 58 59 57 56 57 58 60 54 62 60 65 67 67 65 63
64 64 63 61 62 62 59 59 59 59 58 57 56 57 57 56 59 60 54 53 52 53 59 59 59 58 59 59 60 57 55 54 53 56 61 56 60 57 60 64 67 65 62
66 63 61 62 61 63 60 57 57 57 56 55 55 56 58 56 56 54 51 49 52 52 54 56 56 56 58 59 61 58 56 53 53 53 61 56 57 57 56 65 67 67 65

GFSMA_sfc_temp_021.txt.gz
Temp
84 82 84 84 83 87 87 83 86 86 86 87 87 86 87 87 88 92 91 80 80 80 82 83 83 82 82 82 82 81 81 81 80 80 80 80 80 80 80 80 80 80 80
85 78 84 84 82 87 87 84 82 82 85 85 86 86 85 86 86 86 91 91 80 80 82 83 83 83 82 82 82 81 81 81 80 80 80 80 80 80 80 80 80 80 79
84 80 83 84 85 86 83 84 82 85 83 85 85 86 87 85 86 85 86 88 89 81 81 82 82 82 82 82 81 82 81 81 80 80 80 80 79 79 79 79 79 79 79
83 83 84 82 86 84 85 82 83 84 84 85 84 85 85 85 85 84 85 86 89 90 84 81 81 82 82 83 83 81 80 81 80 80 80 79 79 79 79 79 79 79 78
83 84 81 82 79 84 80 84 85 82 82 83 84 85 84 83 84 87 83 84 85 87 89 83 79 80 83 84 83 82 81 80 80 80 80 79 79 79 79 78 78 78 78
85 82 83 82 83 82 83 84 80 82 81 81 82 83 83 85 84 85 83 85 84 84 86 84 86 88 79 81 82 81 82 81 80 80 79 79 79 78 78 78 78 78 78
84 84 83 81 82 83 83 81 82 79 82 80 78 82 83 83 82 84 85 84 82 83 82 83 85 87 89 78 78 78 81 81 81 80 79 78 78 78 78 77 77 77 77
84 83 83 83 82 82 79 80 79 80 80 79 76 75 76 79 83 83 83 83 81 83 82 82 81 81 82 84 80 76 76 77 79 81 80 79 78 77 77 77 76 76 77
84 82 82 83 80 82 82 80 79 76 77 79 76 76 74 74 76 82 80 82 79 81 82 80 80 79 78 80 80 79 74 74 75 77 78 78 78 78 78 77 76 76 76
83 83 82 81 80 82 79 80 80 78 76 76 78 78 76 75 73 74 81 82 82 80 78 80 80 78 77 80 76 74 74 73 74 74 74 76 76 78 78 78 78 76 76
82 82 81 80 79 82 79 78 76 76 78 78 77 78 76 77 72 74 73 77 82 81 81 81 81 80 79 78 80 76 72 72 72 72 73 73 74 76 78 78 79 78 77
81 80 80 79 79 79 78 78 77 76 76 77 78 76 77 76 76 75 72 73 73 79 80 81 81 81 81 79 78 73 72 71 70 70 70 70 72 73 76 78 79 80 80
80 78 78 78 79 78 78 78 76 76 76 76 75 77 78 78 78 76 74 74 72 77 78 80 80 81 80 80 79 72 73 69 69 68 68 69 70 71 72 74 76 78 78
82 80 79 79 78 78 78 76 78 78 76 76 75 74 77 78 77 76 75 73 71 74 75 73 80 80 80 79 76 71 78 70 68 67 67 67 68 69 70 71 72 73 75
81 79 79 77 77 77 77 77 79 77 76 76 76 75 75 78 78 77 76 75 72 69 72 76 74 77 78 79 77 76 76 72 68 67 66 66 66 67 68 69 69 70 71
78 78 77 78 77 77 77 76 77 77 75 77 77 74 74 78 77 77 76 76 74 71 68 77 76 76 76 76 77 75 76 69 69 67 66 65 65 66 67 67 68 68 69
74 76 75 76 77 77 77 75 75 76 74 75 75 74 74 75 77 77 75 75 74 72 69 74 78 75 71 72 74 76 76 75 77 69 67 66 65 65 66 66 66 67 67
72 73 73 75 76 77 77 75 75 76 74 74 75 74 74 77 73 73 73 71 74 73 70 67 73 74 73 73 73 72 74 77 77 73 67 66 65 64 64 64 64 64 65
70 71 72 73 74 76 75 75 75 75 74 73 75 75 75 75 73 73 74 74 75 73 70 66 70 75 74 74 72 73 73 74 76 72 66 65 64 64 64 63 62 62 62
68 69 70 71 73 74 75 75 75 74 74 76 76 76 76 75 74 73 73 71 71 71 70 64 66 71 73 73 72 71 71 76 75 78 74 71 69 69 67 65 64 63 61
71 71 70 71 73 74 77 75 75 75 75 75 77 76 76 74 70 70 74 73 71 71 72 70 69 72 72 72 70 73 70 73 74 75 75 76 77 78 78 72 70 68 64
68 70 69 70 73 76 69 67 72 76 76 75 75 76 76 70 69 66 65 65 67 68 68 67 69 68 64 68 72 70 69 68 66 76 72 72 76 75 76 77 71 68 65
70 71 71 71 73 73 66 65 66 76 76 76 75 74 73 77 68 72 68 64 64 63 64 66 62 64 66 68 67 64 63 62 63 70 69 68 73 72 74 75 67 65 64
71 73 73 73 73 75 64 62 64 73 73 75 74 74 73 72 71 68 69 70 71 71 70 71 69 68 68 68 66 63 59 60 65 70 71 67 71 65 66 67 65 64 63
72 73 74 73 73 74 59 59 61 65 64 66 71 71 70 70 63 60 67 67 68 69 67 60 60 59 59 59 60 59 58 63 65 68 71 65 61 59 61 62 66 64 62
71 76 74 73 69 72 58 57 60 62 62 62 64 64 60 64 57 57 65 66 65 67 66 66 67 66 65 66 62 64 63 58 65 57 66 55 55 56 53 62 66 70 71

GFSMA_sfc_temp_024.txt.gz
Temp
91 92 92 92 93 93 94 92 93 92 92 93 93 92 93 93 93 96 98 82 81 81 82 83 83 82 82 82 82 81 81 81 81 80 81 81 80 80 80 80 80 80 80
91 85 90 93 92 93 94 92 88 89 89 91 90 91 91 92 92 90 95 94 81 81 81 83 83 83 82 82 82 82 81 81 81 81 81 80 80 80 80 80 80 80 80
89 85 90 90 92 92 88 88 88 91 91 93 89 89 92 92 93 90 92 93 92 81 82 82 83 82 83 82 82 82 81 81 81 80 80 80 80 80 80 80 80 80 79
88 87 85 90 93 91 92 90 87 91 91 91 90 91 91 92 92 90 92 92 94 96 84 82 81 81 82 83 83 82 81 80 80 80 80 80 80 79 79 79 79 79 79
90 89 90 91 88 90 88 90 91 88 88 89 90 92 91 90 92 95 91 91 92 92 95 83 81 81 82 83 83 82 81 80 80 80 80 80 79 79 79 79 79 78 78
90 90 91 89 87 90 88 91 85 88 87 87 89 89 90 91 93 94 91 96 91 91 93 90 91 90 81 81 82 81 81 81 80 79 80 79 79 79 79 78 78 78 78
89 89 92 90 87 88 88 87 87 85 87 87 85 89 90 88 90 93 94 93 89 92 88 90 92 94 89 81 79 79 79 81 81 81 80 79 78 78 78 78 77 78 78
89 89 88 90 88 91 86 85 84 85 87 87 82 84 83 84 89 92 91 91 87 93 91 87 86 85 85 82 82 76 75 76 77 79 80 79 78 78 78 77 77 77 77
90 88 88 89 87 87 90 85 85 81 84 86 81 82 81 81 84 87 85 88 86 89 89 87 85 83 83 85 85 80 75 75 76 76 76 76 77 76 78 78 77 76 76
90 89 88 87 85 90 85 87 88 83 81 83 86 85 82 80 79 80 86 87 88 88 84 88 86 83 83 86 79 74 74 73 73 74 74 75 74 76 77 78 77 77 76
88 89 88 86 85 88 85 84 83 81 85 83 85 85 82 85 82 79 80 84 88 88 88 89 88 89 85 85 86 76 73 72 72 72 72 73 74 75 76 78 78 78 78
89 87 87 85 85 86 84 84 83 81 81 81 84 83 83 82 83 80 79 80 80 85 88 88 87 88 89 88 81 75 74 71 71 70 70 71 72 73 74 76 77 78 79
89 84 84 83 85 83 83 83 81 81 81 81 80 84 85 84 85 82 80 80 80 84 85 88 89 87 87 86 86 74 77 72 70 69 68 69 70 71 72 73 74 76 77
90 86 83 85 85 84 83 82 83 83 82 81 80 80 83 84 85 83 80 79 77 81 84 80 87 87 87 86 82 74 82 72 70 68 67 68 68 69 70 71 71 72 73
90 86 85 82 83 83 83 81 83 82 81 81 81 80 80 83 85 84 83 82 78 74 77 83 82 84 84 85 83 82 81 76 70 69 67 67 67 67 68 69 69 69 70
85 83 83 83 82 81 81 80 83 82 80 82 83 80 79 83 83 84 83 82 81 78 74 82 83 84 83 82 81 80 81 74 72 69 68 67 67 67 67 68 68 68 68
79 79 80 81 80 80 81 79 80 81 80 79 80 79 78 79 81 84 84 82 81 81 76 80 83 84 80 79 80 81 81 81 83 71 69 67 66 66 67 67 67 67 67
79 76 75 75 76 80 81 80 79 82 79 78 79 79 78 81 78 77 81 78 79 79 78 72 77 79 79 80 79 78 79 83 82 77 69 67 66 65 65 65 64 64 64
79 72 74 74 76 79 79 79 79 78 78 79 80 79 79 79 78 80 79 80 82 79 79 76 74 79 79 81 79 78 78 79 82 76 69 69 67 66 64 63 63 62 62
78 75 74 76 76 78 78 80 79 79 79 81 80 80 81 80 79 78 78 77 77 76 76 77 77 75 76 75 73 73 75 82 81 85 79 74 72 71 66 64 64 63 61
79 77 73 75 77 78 82 79 80 78 78 79 80 81 82 80 74 73 79 78 76 76 78 77 76 76 74 72 70 78 76 78 78 81 81 82 83 83 82 72 71 69 65
76 76 76 77 78 81 72 69 76 80 79 79 79 80 81 74 71 67 67 66 68 70 70 71 74 70 69 72 76 74 73 72 71 81 77 77 81 79 81 82 74 69 67
78 78 76 77 78 79 66 66 69 79 79 77 76 75 75 72 74 77 69 65 65 64 64 69 68 70 70 72 71 66 67 69 69 74 73 71 78 76 80 83 69 66 63
77 76 77 77 78 79 65 64 66 75 74 73 69 69 67 67 71 73 73 75 75 76 74 74 72 72 73 73 70 69 67 64 67 71 72 65 72 75 79 80 70 67 64
76 75 76 76 75 77 62 61 65 74 71 66 66 67 67 66 66 63 71 72 73 74 72 63 62 62 61 61 63 68 66 63 64 70 76 71 74 74 74 72 71 65 63
74 78 76 77 71 78 58 58 66 72 69 65 64 64 61 60 61 59 69 71 70 73 74 73 72 69 65 70 62 66 65 61 63 68 75 71 70 64 54 62 68 70 69

GFSMA_sfc_temp_027.txt.gz
Temp
86 87 83 93 88 94 84 84 86 88 92 90 90 90 92 90 89 92 87 81 81 81 82 83 83 83 82 82 82 81 81 81 81 81 81 81 81 80 80 80 81 80 80
88 92 91 92 84 94 90 88 90 89 89 89 85 83 85 88 90 93 95 87 82 82 82 83 83 83 82 81 82 82 81 81 81 81 80 80 80 80 80 80 80 80 80
91 86 87 92 91 84 90 90 89 84 84 89 89 91 92 91 94 93 93 94 91 81 82 81 82 83 82 82 82 82 81 81 80 80 80 80 80 80 80 80 80 80 80
90 89 90 91 88 91 84 86 88 83 92 92 91 92 93 93 93 92 93 94 95 97 84 82 82 82 83 83 83 82 80 81 81 80 79 80 80 80 79 79 79 79 79
91 90 87 88 87 90 90 83 81 88 88 90 92 93 93 92 93 96 92 92 93 93 95 83 82 82 83 84 83 82 81 80 80 80 80 79 79 79 79 79 79 79 79
92 88 85 91 91 90 86 78 86 88 87 89 90 90 90 91 93 94 92 96 92 92 94 91 90 87 82 83 82 81 81 81 80 80 79 79 79 79 79 78 78 78 78
90 88 84 82 90 89 80 88 87 86 87 89 85 89 90 89 90 93 94 93 90 93 90 90 84 81 79 78 79 79 79 80 80 80 79 78 78 78 78 78 77 77 78
90 91 90 89 82 81 87 87 84 84 88 87 83 84 83 86 88 92 90 90 88 93 91 88 86 85 86 84 80 77 76 77 77 78 79 77 77 78 78 77 77 77 77
93 89 90 89 88 89 90 86 86 83 84 87 83 82 81 80 84 85 86 88 86 89 90 87 86 84 84 85 80 79 75 75 76 76 75 75 76 77 76 76 76 77 76
93 91 90 90 88 91 85 88 88 84 82 83 86 86 84 81 80 78 83 86 86 87 85 89 86 84 85 86 76 75 74 74 74 75 75 75 75 75 75 77 77 77 77
91 92 90 88 88 89 85 85 84 82 85 83 86 85 83 84 81 80 78 80 88 88 88 87 88 89 86 86 85 75 74 73 73 73 73 74 74 75 76 76 77 78 78
91 90 90 88 86 87 86 85 84 83 81 82 84 83 84 83 83 81 80 81 82 85 88 88 87 88 88 88 81 75 75 73 72 71 71 71 72 73 75 76 76 77 78
93 88 88 85 84 84 86 85 82 82 82 82 81 83 86 86 86 83 81 80 80 85 86 89 89 88 88 87 85 78 77 75 72 70 70 70 70 71 72 74 74 75 76
94 87 86 84 85 85 84 83 84 84 83 82 81 81 83 85 86 84 82 79 77 80 84 82 88 88 88 87 83 77 83 73 73 70 69 69 69 70 70 71 72 72 72
94 88 86 85 84 84 84 83 81 83 82 82 81 81 81 84 85 86 84 83 78 74 77 81 81 87 86 86 84 84 82 77 73 70 69 68 68 68 69 69 70 70 70
90 88 85 83 83 81 82 80 81 82 81 83 83 82 81 81 83 84 83 82 76 70 67 82 84 86 85 86 84 83 81 76 71 70 70 68 68 68 68 68 68 68 68
87 85 83 83 82 79 81 79 80 82 81 80 80 79 78 80 81 83 82 77 78 73 70 77 83 84 79 81 82 81 83 81 83 73 70 69 67 67 67 67 67 67 67
85 84 83 82 82 82 80 78 78 83 80 79 78 78 79 82 79 77 81 78 80 80 78 73 77 79 79 80 76 78 81 84 83 79 70 68 67 67 66 66 65 65 65
83 83 82 81 81 79 79 79 79 79 80 80 80 79 80 80 78 80 79 79 81 79 75 75 77 81 81 81 78 79 74 77 83 78 71 68 67 66 66 65 64 63 63
82 81 81 81 80 79 81 79 81 80 80 80 81 81 81 80 79 78 78 77 78 77 77 76 76 78 77 79 78 73 73 77 76 85 80 76 74 71 67 66 65 64 61
82 82 81 80 80 81 84 79 82 80 79 79 81 82 82 79 73 73 79 77 76 76 78 77 76 77 77 72 70 75 74 78 78 81 81 82 83 83 83 70 72 67 65
82 82 81 79 79 83 73 71 77 80 80 79 79 80 78 73 73 68 66 65 68 68 68 71 72 71 70 73 76 75 74 72 69 79 76 76 80 79 81 83 74 68 64
81 80 80 79 80 81 66 68 70 81 81 80 77 77 73 73 69 69 66 65 64 65 65 70 68 70 70 72 72 70 70 69 69 74 72 70 76 76 80 82 71 69 64
79 78 80 79 79 80 64 64 68 79 79 80 79 77 74 72 69 67 65 65 66 69 72 72 72 71 73 74 70 70 68 67 70 72 72 67 73 74 77 77 71 67 65
77 79 80 79 77 76 63 62 67 79 78 77 78 72 74 70 65 63 63 62 64 69 75 68 66 64 64 64 65 70 68 66 63 67 74 73 72 73 77 75 76 70 63
77 75 75 77 70 74 62 59 66 75 76 79 77 74 63 69 60 59 66 68 67 71 72 76 75 70 65 68 63 67 69 66 66 67 74 70 72 72 65 71 72 70 68

GFSMA_sfc_temp_030.txt.gz
Temp
82 84 81 86 84 84 83 77 77 84 83 85 86 86 86 85 86 78 79 81 81 81 82 83 83 82 82 82 82 81 81 81 81 80 81 81 81 80 80 80 80 80 80
78 80 86 85 78 82 81 83 83 83 83 84 85 86 84 85 86 85 83 81 82 81 82 83 83 83 83 82 82 82 81 81 81 81 80 80 80 80 80 80 80 80 80
84 85 85 84 81 82 85 82 81 81 82 85 81 84 85 85 86 86 85 84 82 82 82 82 82 82 82 82 82 82 81 80 80 80 80 80 80 79 79 79 79 79 79
88 85 85 84 85 81 77 77 81 78 78 82 80 82 83 84 85 86 85 85 84 87 82 82 82 81 82 83 83 82 81 81 80 80 79 79 79 79 79 79 79 79 79
86 83 83 82 83 82 82 79 81 78 78 78 82 82 82 82 84 90 87 86 86 85 83 82 81 81 83 84 83 82 81 80 79 79 79 79 78 79 79 78 78 78 78
84 81 82 82 82 83 79 80 78 81 80 78 86 82 81 82 82 83 84 88 84 86 83 81 79 82 81 82 82 82 82 81 80 80 79 79 78 78 78 78 78 78 78
86 84 85 80 82 81 81 79 81 78 79 79 76 77 78 82 81 82 83 82 83 85 83 80 78 76 76 79 78 79 81 80 80 80 79 78 78 78 77 77 77 77 77
84 85 83 80 80 78 79 81 79 76 76 79 74 73 71 75 78 83 80 81 80 82 82 81 79 78 76 76 76 77 77 78 78 78 77 77 77 77 77 77 76 76 77
86 84 85 83 81 81 80 81 80 79 74 77 79 74 69 68 73 78 78 77 78 77 79 78 78 78 78 76 76 75 75 76 76 77 76 75 75 76 76 76 76 76 76
87 85 85 83 81 81 80 79 80 78 76 73 77 80 78 75 69 69 75 76 77 78 77 77 76 77 78 73 75 75 75 74 75 75 75 75 75 75 76 76 76 76 76
88 85 84 84 82 82 79 79 78 77 77 75 75 76 76 75 74 71 68 71 75 76 76 76 77 76 77 76 73 73 74 74 73 73 73 73 74 75 76 76 77 77 77
84 86 85 83 82 82 79 78 78 79 77 76 75 75 74 73 72 72 69 71 72 74 76 76 75 76 76 75 80 75 75 74 73 73 72 72 73 74 75 76 76 77 77
84 82 83 81 81 80 80 78 76 77 76 76 76 74 75 75 76 74 72 70 70 73 75 77 76 76 78 76 73 76 75 74 73 72 71 71 71 72 73 74 74 75 76
86 82 83 82 81 80 80 78 77 77 76 76 75 75 74 75 76 75 73 70 67 69 72 76 76 78 76 76 75 77 75 72 72 71 70 70 70 70 71 72 72 73 73
86 83 82 81 81 80 78 78 77 76 76 76 76 76 75 75 76 75 74 73 71 64 65 71 72 76 76 76 76 74 76 76 72 71 69 69 69 69 69 70 70 70 70
84 82 81 81 80 79 79 78 76 78 76 76 76 75 74 75 74 75 74 73 71 69 65 70 71 73 76 77 78 76 76 76 72 70 69 68 69 69 69 69 68 68 68
83 80 80 80 80 79 78 76 76 76 75 74 75 75 74 75 73 74 74 73 72 71 66 69 71 74 74 73 75 75 75 74 75 70 69 69 68 68 68 68 68 68 68
82 80 80 79 79 78 78 76 75 77 76 74 74 74 74 77 73 73 73 72 72 71 69 67 70 71 72 73 73 72 74 79 73 76 72 70 68 66 66 66 66 66 66
82 82 80 78 78 78 77 76 76 76 76 74 75 74 74 74 73 73 73 72 71 71 70 68 67 71 71 72 71 71 71 71 75 75 71 70 68 67 65 64 64 63 63
82 80 79 78 78 78 78 77 77 76 75 76 76 75 75 74 73 72 71 69 69 68 68 65 66 68 69 71 70 67 66 69 70 77 76 73 70 68 67 65 64 64 62
82 80 79 78 78 78 80 76 77 76 74 75 75 76 76 76 73 70 71 70 68 66 64 64 66 67 68 67 65 68 67 68 68 69 68 70 70 70 71 67 69 67 64
81 79 78 77 77 80 73 71 75 76 76 74 74 75 76 74 70 67 67 66 67 64 63 62 62 64 65 65 67 66 65 65 63 69 65 67 68 68 71 73 71 70 65
80 78 77 77 76 76 69 68 71 76 75 75 74 74 75 76 71 70 66 65 65 65 65 64 60 61 63 65 65 64 64 63 62 67 65 63 67 66 70 74 69 67 65
78 77 77 76 76 77 64 65 68 73 72 74 74 75 73 73 71 69 68 67 67 67 65 64 63 63 65 68 66 65 63 62 64 66 65 60 66 66 70 71 69 67 63
77 76 77 76 75 76 62 62 65 70 69 71 73 74 74 73 69 63 67 66 66 66 68 64 64 65 64 64 65 64 63 61 61 64 66 64 66 65 66 67 69 67 63
77 77 76 75 71 73 61 60 63 68 67 70 72 72 64 69 61 60 66 67 65 66 67 69 68 67 64 65 64 64 65 62 60 60 66 61 63 64 60 66 65 67 67

GFSMA_sfc_temp_033.txt.gz
Temp
76 78 78 79 79 79 75 73 75 76 78 80 79 81 80 75 73 75 73 81 81 81 82 83 82 82 82 82 81 81 81 81 80 80 81 80 80 80 80 80 80 80 79
76 79 77 77 77 78 78 76 76 76 79 80 81 80 80 80 77 78 77 77 81 81 81 82 83 82 82 82 82 81 81 81 80 80 80 80 80 80 80 80 80 80 79
77 78 77 76 78 77 78 77 76 76 77 78 77 78 80 80 82 80 78 77 79 82 82 82 81 81 82 82 82 82 81 80 80 80 80 79 79 79 79 79 79 79 79
79 76 77 77 77 75 74 74 74 73 75 73 72 73 75 77 79 80 79 79 77 81 82 82 82 81 82 83 81 82 81 80 80 80 79 79 79 79 79 78 78 78 78
81 78 77 77 80 78 76 74 76 74 72 71 74 74 74 75 77 84 81 82 80 78 78 80 80 81 83 83 83 81 81 80 79 79 79 79 79 79 78 78 78 78 78
80 79 77 77 79 75 73 74 74 77 72 71 78 75 72 74 76 77 78 84 81 80 78 79 75 77 81 82 82 82 81 81 80 79 79 78 78 78 78 78 77 77 77
79 76 77 77 79 76 75 77 72 71 69 71 69 70 70 74 77 79 75 75 78 79 79 74 74 75 75 79 78 79 81 81 81 80 79 78 78 78 77 77 76 77 77
79 80 76 76 76 75 75 73 72 67 68 70 67 64 65 70 76 77 73 76 73 76 76 75 74 73 72 72 74 77 77 78 78 78 77 77 78 77 77 76 76 76 76
79 79 79 78 75 76 73 73 72 69 66 69 70 67 62 61 69 73 74 73 73 71 73 73 74 73 72 71 72 74 76 76 77 77 76 76 75 75 76 76 76 76 76
79 78 78 76 76 74 73 71 73 69 67 66 68 72 69 68 63 64 69 69 70 73 71 71 71 72 70 69 73 74 75 75 75 75 75 75 75 75 76 76 76 76 76
78 79 78 77 75 74 72 72 71 70 68 67 66 67 67 66 66 64 62 65 73 70 70 71 71 71 70 68 66 71 75 74 74 74 74 74 74 75 76 76 77 77 77
76 77 78 76 74 73 72 71 72 70 70 69 67 66 66 65 65 64 62 62 66 69 73 70 70 70 70 69 74 74 75 74 73 73 73 73 73 74 75 76 76 77 77
73 74 75 76 77 75 75 71 71 70 72 71 68 67 67 66 67 66 64 62 63 65 69 73 70 71 73 69 71 74 75 73 72 71 71 72 73 74 74 75 75 76 76
78 76 76 77 77 74 72 71 69 70 70 68 69 67 68 68 67 67 67 65 62 62 64 66 70 73 73 69 70 74 70 71 71 71 70 70 70 71 72 73 73 74 74
79 77 77 77 76 73 72 70 69 69 69 69 68 68 68 67 68 69 69 67 65 59 60 64 67 71 73 73 71 70 70 72 70 71 69 69 69 69 70 71 71 71 71
77 78 78 77 75 73 72 70 69 70 69 69 69 68 68 68 68 68 67 67 65 62 58 63 65 69 71 74 75 71 71 72 71 70 69 68 68 69 69 69 69 69 69
77 77 78 75 74 73 73 71 69 69 69 68 69 68 67 68 67 67 67 66 65 64 61 63 65 67 68 69 71 72 71 69 69 69 69 68 67 67 68 68 68 68 68
77 78 77 75 75 73 73 71 70 72 70 68 68 67 67 71 66 66 65 65 65 65 63 61 63 65 67 69 68 68 70 74 69 72 69 67 67 66 66 66 66 66 66
77 77 76 75 74 74 73 73 72 69 69 70 70 68 67 67 66 66 66 66 65 66 64 63 61 64 65 65 65 66 66 66 71 72 69 68 68 66 65 64 64 63 63
79 76 76 76 75 74 74 72 71 69 68 69 71 70 69 68 66 66 66 65 65 63 63 61 60 61 62 65 63 61 61 62 65 73 71 69 68 68 67 64 64 63 61
80 77 75 74 74 74 75 71 71 70 69 69 71 74 73 72 72 69 67 65 64 62 60 59 58 59 59 62 60 61 59 61 63 65 64 65 63 63 64 65 67 67 63
79 76 74 73 72 76 70 70 72 71 70 71 71 70 71 73 71 70 69 67 65 61 59 58 58 58 59 63 64 60 58 57 55 64 60 63 61 65 66 63 67 66 64
78 75 74 73 70 73 68 67 70 71 71 71 71 72 71 73 67 65 65 65 65 65 65 60 58 58 59 60 61 61 61 60 59 66 61 59 61 60 65 68 66 65 64
75 74 74 74 70 70 65 64 68 72 68 69 71 69 68 67 66 64 64 62 63 63 62 63 61 61 60 62 61 62 60 58 57 59 59 54 59 58 63 64 66 65 63
76 74 71 70 70 71 64 62 64 67 66 66 68 69 69 66 64 63 63 62 61 62 65 63 63 63 62 63 63 58 57 53 52 55 58 55 59 56 58 62 64 64 63
74 72 71 72 70 73 62 61 62 66 65 65 67 68 66 66 61 60 62 60 60 60 61 62 62 61 61 61 63 59 63 53 55 52 58 55 56 55 57 56 58 59 64

GFSMA_sfc_temp_036.txt.gz
Temp
74 76 73 74 75 74 73 72 73 74 75 78 78 77 74 73 71 73 72 81 80 81 82 82 82 82 82 81 81 81 81 80 80 80 80 80 80 80 79 79 79 79 79
74 75 73 73 73 76 73 74 74 74 76 77 77 78 75 74 74 76 75 75 81 81 82 82 82 82 82 82 81 81 81 81 80 80 80 80 79 79 79 79 79 79 79
74 75 75 75 76 76 75 74 75 74 74 75 74 76 76 75 77 77 75 74 76 81 82 82 81 81 81 82 82 81 81 80 80 80 79 79 79 79 79 79 79 79 78
77 75 75 74 75 74 73 72 73 72 74 72 70 71 72 76 75 77 76 75 75 79 81 82 82 81 82 82 82 81 80 80 79 79 79 79 79 79 78 78 78 78 78
77 76 75 75 76 75 73 72 74 72 71 69 73 72 71 71 75 80 77 79 75 75 75 80 81 81 83 84 83 81 81 79 79 79 79 79 79 78 78 78 77 77 77
78 76 75 76 76 75 73 72 72 71 69 68 75 73 70 72 72 76 76 79 80 76 75 77 76 76 81 83 82 82 81 81 80 79 78 78 78 78 78 77 77 77 77
78 76 75 75 74 73 75 73 71 69 67 67 67 67 68 71 71 73 73 73 74 74 74 73 73 72 76 80 79 79 81 81 81 80 79 78 78 77 77 76 76 77 77
78 76 74 73 73 75 72 71 70 65 66 67 65 61 63 68 73 72 73 73 71 73 73 73 72 71 70 71 74 77 78 78 79 78 77 76 77 76 76 76 76 76 76
79 77 75 74 72 72 71 70 69 67 65 66 66 65 60 60 66 68 73 69 69 68 69 70 71 71 70 70 72 74 76 76 77 77 76 76 75 75 75 75 75 75 75
77 77 76 74 73 72 71 70 70 67 65 65 66 69 65 65 61 62 67 67 67 69 68 68 69 70 69 67 72 74 76 76 76 76 76 76 75 76 76 76 76 75 75
76 77 75 74 73 71 71 70 68 67 66 65 64 65 64 64 62 62 60 64 67 67 67 68 68 68 68 67 66 71 75 75 75 75 75 75 75 75 76 76 76 76 76
75 75 76 73 72 71 70 69 68 67 66 66 64 64 64 63 62 62 60 61 62 65 67 67 67 67 67 66 71 74 75 74 73 74 74 74 75 76 76 77 76 77 77
71 73 73 72 72 71 70 69 68 67 66 66 66 65 64 64 64 62 62 59 61 63 66 69 67 66 69 66 68 73 75 73 72 72 72 72 73 74 75 76 76 76 77
77 75 75 75 73 72 70 69 67 67 67 66 66 65 65 65 65 64 64 62 59 59 61 64 66 68 68 67 69 74 69 71 71 70 69 70 70 72 72 73 74 74 75
76 76 76 75 74 72 70 68 67 67 67 66 66 65 65 65 65 65 65 64 63 57 58 63 65 67 67 68 69 69 68 70 70 69 68 68 68 69 70 71 71 71 71
77 75 76 75 74 72 71 68 67 67 66 66 67 65 64 64 65 65 65 64 62 61 58 61 63 65 68 70 71 69 69 71 70 69 68 67 67 68 69 69 69 69 69
77 76 76 76 74 72 70 69 67 68 66 66 67 66 66 65 65 64 64 63 62 62 60 62 62 65 66 67 68 68 68 67 67 69 69 68 67 67 68 68 68 68 68
75 77 77 76 74 73 71 70 68 70 67 66 66 65 66 68 65 63 63 63 63 62 61 59 60 62 63 66 65 65 68 71 67 70 67 67 66 66 65 65 65 65 65
74 75 76 75 74 73 72 71 70 68 68 67 67 66 66 65 64 63 63 62 63 64 62 60 60 61 62 63 64 63 64 65 68 70 68 68 66 65 64 63 62 61 61
75 75 75 75 75 74 73 72 71 68 68 68 68 68 70 68 65 65 66 63 63 62 61 60 59 59 60 62 61 60 62 61 61 69 69 68 67 67 66 65 64 64 61
79 76 75 74 73 73 74 71 72 70 69 67 67 69 72 71 70 68 68 65 63 62 61 59 58 57 57 58 58 60 62 63 63 64 61 62 61 61 65 65 67 67 64
78 74 74 73 71 75 70 68 72 71 69 69 68 66 72 71 70 68 68 67 66 63 61 58 59 56 57 58 58 59 59 59 58 65 61 58 61 61 64 63 65 65 63
76 72 72 72 71 74 67 67 69 70 68 69 67 66 68 73 69 69 66 64 64 64 63 60 58 58 58 58 59 57 57 57 56 62 57 54 57 56 61 65 64 64 63
76 73 72 72 71 72 65 64 67 71 68 67 67 67 68 68 66 66 65 64 64 63 63 63 61 61 60 60 59 59 58 57 56 56 56 52 56 55 59 60 63 63 62
76 74 72 72 71 71 63 63 64 69 65 65 66 67 68 66 63 62 64 63 62 62 63 62 62 62 61 62 62 58 58 52 52 52 55 54 55 54 55 56 59 63 62
75 73 72 73 70 72 61 60 62 66 66 66 64 67 63 65 60 59 65 63 62 62 61 61 62 60 61 60 61 58 57 53 52 51 56 54 52 51 51 54 56 57 57

GFSMA_sfc_temp_042.txt.gz
Temp
73 75 74 75 74 75 75 75 75 75 77 77 77 77 76 75 75 75 74 80 80 80 81 82 82 82 82 81 81 80 80 80 80 80 80 79 80 79 79 79 79 79 79
73 75 74 74 73 75 75 75 75 75 76 77 78 78 76 76 76 76 77 77 79 80 81 82 81 82 82 82 81 81 81 80 80 80 80 79 79 79 79 79 79 79 79
75 75 75 75 75 74 76 75 75 75 75 75 75 77 77 77 78 77 77 77 79 81 81 82 81 81 81 81 82 82 81 80 80 80 79 79 79 79 79 79 79 79 78
75 74 75 75 75 75 75 74 74 74 74 74 73 72 73 76 77 77 77 78 78 81 81 81 81 81 82 82 81 80 80 79 79 80 79 79 79 78 78 78 78 78 78
76 75 75 75 75 75 74 74 74 74 72 73 75 73 72 74 76 80 78 78 78 79 79 79 80 81 83 83 83 81 80 80 79 78 79 78 79 78 78 78 78 77 77
77 75 75 75 76 75 74 73 73 72 71 71 74 72 72 73 75 75 77 81 79 79 79 78 80 81 80 82 82 82 82 81 80 79 78 78 78 78 78 77 77 77 77
77 75 75 75 75 75 75 74 72 72 71 69 70 70 71 72 73 73 76 77 77 77 78 77 78 77 78 80 80 80 81 81 80 80 79 77 77 77 77 77 76 77 77
77 77 75 74 75 74 73 73 72 70 69 69 68 66 67 71 73 73 74 76 75 77 77 76 76 75 75 76 79 78 78 79 79 79 78 76 75 75 76 77 76 77 76
77 77 76 74 74 74 73 72 71 70 69 68 69 69 65 66 68 71 72 73 73 74 74 75 75 75 75 76 75 77 77 77 78 78 77 76 76 76 75 74 73 74 75
77 77 76 75 74 73 72 72 72 70 69 69 69 69 68 69 67 67 71 71 72 74 73 73 75 74 74 74 75 76 76 76 77 78 78 77 76 76 76 76 76 75 75
76 77 76 75 74 73 73 71 70 69 68 68 69 68 67 67 67 67 66 69 71 72 72 72 73 75 74 74 74 73 76 76 76 76 77 77 77 77 77 77 77 77 76
75 75 76 75 75 73 72 71 70 69 68 69 69 68 69 69 68 67 66 66 68 71 71 72 72 73 74 74 74 74 75 75 75 75 75 75 76 77 77 78 78 78 78
73 75 75 74 73 73 73 71 69 69 69 69 68 69 69 69 69 68 67 65 67 68 70 71 72 71 73 73 74 75 75 73 73 72 72 73 73 74 75 76 77 77 77
75 75 75 75 74 73 73 70 70 69 69 69 67 68 69 69 68 68 68 67 66 66 67 71 71 72 71 72 73 72 75 71 71 70 69 69 71 71 72 73 74 74 75
76 75 75 75 74 73 72 70 70 69 69 68 68 68 69 69 69 69 68 69 68 65 66 69 70 71 72 72 72 75 74 71 69 69 68 68 68 69 70 71 71 71 71
75 74 75 75 73 73 71 70 69 69 68 68 69 67 67 68 69 69 69 68 68 67 66 68 70 70 72 73 73 73 73 71 70 68 68 67 67 68 69 69 69 69 69
74 74 74 74 74 72 71 70 69 69 68 68 68 67 67 68 68 68 68 68 67 67 67 68 68 69 71 72 73 73 74 73 74 67 67 67 66 66 67 68 67 67 68
74 74 74 74 74 73 72 71 70 71 69 68 68 67 68 68 67 67 68 67 67 66 68 66 67 68 68 70 71 71 73 75 73 71 67 66 66 65 64 64 64 64 64
74 74 74 74 74 74 72 72 72 71 70 70 69 68 68 68 67 67 66 68 67 67 66 67 68 68 68 69 69 68 69 70 72 70 67 66 66 66 65 64 64 63 62
75 74 74 74 74 74 74 73 72 71 71 71 70 70 69 68 68 67 67 67 67 66 66 64 66 66 67 68 67 68 67 68 69 74 72 68 67 66 66 63 63 63 61
76 75 74 75 75 75 76 73 73 72 71 71 70 69 69 70 69 68 69 67 67 66 66 64 63 63 62 65 66 68 65 64 68 69 70 71 72 72 72 67 68 66 63
76 75 75 75 74 77 71 69 73 73 72 71 69 68 69 68 68 67 67 67 68 67 66 65 63 65 64 64 63 61 64 64 65 68 67 66 69 69 71 71 66 63 62
75 75 75 75 74 75 67 67 69 74 71 70 69 67 68 69 68 70 66 66 66 66 67 67 64 64 64 65 63 60 61 63 63 68 66 65 67 67 70 71 63 62 61
75 75 74 75 74 75 65 64 68 73 70 70 69 68 68 68 68 68 69 68 68 68 67 66 65 64 64 64 65 64 64 63 62 65 64 59 66 66 69 69 63 62 61
76 76 76 74 73 73 62 62 65 71 69 69 69 69 68 68 65 63 67 67 67 66 63 62 62 61 61 62 64 63 61 59 58 63 63 63 65 64 66 68 70 62 59
77 77 75 75 71 74 60 60 64 70 69 68 68 68 64 68 60 60 68 67 65 64 64 64 64 62 62 64 62 64 65 62 61 60 64 61 63 63 62 65 65 67 68

GFSMA_sfc_temp_045.txt.gz
Temp
84 86 86 88 87 89 89 86 87 88 86 89 84 89 90 88 87 90 87 80 80 81 82 82 82 81 82 81 81 80 80 80 80 80 79 80 80 80 79 79 79 79 79
84 87 87 88 88 88 88 88 83 87 88 87 88 89 88 89 88 86 90 87 80 80 82 82 82 82 81 82 81 81 81 80 80 80 80 79 79 79 79 79 79 79 79
85 83 87 87 89 86 84 86 85 84 89 85 82 88 89 87 89 81 89 91 88 81 82 82 82 82 82 82 82 81 81 81 80 80 80 80 79 79 79 79 79 79 79
84 84 86 87 88 86 83 82 87 87 80 79 84 87 87 87 87 87 90 91 91 93 84 82 82 81 82 82 81 81 80 80 80 80 80 79 79 79 79 79 79 78 78
85 85 87 87 85 86 85 82 86 85 83 82 84 87 86 88 89 93 89 87 87 89 91 82 81 81 83 83 82 81 81 80 80 79 79 79 79 79 78 78 78 78 78
85 84 80 82 86 86 80 80 83 84 85 85 88 85 86 87 89 89 89 92 90 90 91 86 88 87 81 83 82 82 82 81 80 79 78 78 78 78 78 77 77 77 77
85 84 79 85 82 82 84 83 84 82 84 83 84 83 85 86 85 87 90 90 88 88 87 88 89 86 89 80 80 81 81 82 81 80 80 78 78 77 77 77 77 77 77
85 85 81 84 84 86 82 82 81 82 83 82 82 82 79 83 86 87 87 88 87 89 88 86 85 84 85 85 82 79 79 80 80 80 79 78 77 76 76 77 76 77 77
86 85 80 82 84 84 85 82 81 80 82 81 79 82 78 79 82 85 83 87 85 88 87 86 84 83 83 85 84 81 78 78 79 78 78 77 77 77 77 76 75 75 73
86 86 85 84 83 86 83 83 83 82 80 80 80 82 81 81 80 77 83 84 84 85 84 87 86 84 83 86 79 78 77 78 78 79 78 78 77 77 77 77 76 76 76
85 86 85 84 84 85 83 82 80 79 82 83 82 80 79 82 80 81 79 80 83 85 85 86 87 87 85 86 85 80 77 77 77 77 78 78 77 77 78 78 77 77 77
87 84 85 84 84 84 83 83 81 80 80 80 83 82 82 81 80 80 79 79 80 83 85 85 83 85 87 86 83 77 76 76 76 76 76 76 77 77 77 78 78 78 78
86 85 83 83 85 83 83 82 80 80 79 80 78 83 83 83 84 83 82 81 80 83 84 86 85 84 85 86 86 77 76 74 74 73 73 73 74 75 76 77 77 77 77
87 86 84 85 84 84 83 81 82 82 80 80 78 79 83 83 83 83 82 80 77 79 81 81 85 85 84 84 84 75 83 72 71 71 70 71 71 72 73 74 74 75 75
88 86 85 84 84 84 83 81 83 79 79 79 79 78 80 83 83 83 82 83 81 77 78 80 82 82 85 85 82 83 83 76 70 70 69 69 69 70 70 71 71 71 71
84 86 84 84 84 83 82 80 82 80 78 80 81 77 77 82 80 82 82 82 81 80 77 83 82 83 83 85 82 80 82 75 71 69 68 68 68 69 69 69 69 69 69
83 84 84 84 83 82 82 80 80 81 78 78 78 77 77 78 80 81 81 81 80 80 78 80 82 81 78 80 82 82 83 83 85 69 68 67 67 67 68 68 68 68 68
83 83 84 84 83 83 82 80 80 81 78 78 78 77 77 79 75 77 79 77 79 78 79 74 78 79 77 79 80 79 82 87 84 76 68 67 66 66 66 66 65 65 65
83 83 83 83 83 83 82 81 81 80 80 80 79 78 78 77 75 78 77 78 79 78 77 79 79 80 80 80 79 78 78 80 82 73 68 67 67 67 66 66 65 63 62
82 82 82 83 83 84 83 83 81 80 80 80 80 80 79 78 77 75 74 75 76 77 77 77 78 78 78 75 77 76 78 80 80 82 74 71 69 69 66 65 64 63 61
82 82 82 82 83 84 86 82 82 81 79 79 80 80 80 78 74 73 74 74 75 75 78 77 76 77 76 70 72 80 76 77 76 70 73 81 81 81 80 68 70 68 64
82 82 81 82 82 86 75 71 79 82 80 80 79 79 79 73 71 68 68 70 75 75 75 78 78 75 73 73 71 76 73 73 70 77 75 76 79 78 80 81 70 65 62
82 81 81 81 81 82 69 68 70 84 82 80 80 80 79 77 72 73 66 66 68 68 72 76 74 74 73 73 74 64 71 70 73 77 73 73 79 76 80 81 66 63 61
81 81 81 81 81 82 67 66 69 81 82 81 80 80 78 76 73 72 72 73 74 75 73 78 77 77 75 69 73 74 73 71 73 74 73 68 77 75 78 79 68 64 61
81 81 82 81 80 81 64 63 68 80 82 80 80 79 77 75 69 64 73 75 74 76 68 65 66 64 63 64 69 71 71 66 66 71 75 72 75 73 75 76 78 66 61
82 84 83 82 77 81 64 61 67 82 80 80 77 77 66 70 62 60 69 70 73 74 73 71 70 65 65 67 63 71 74 71 72 71 75 71 73 73 69 76 75 76 77

GFSMA_sfc_temp_048.txt.gz
Temp
91 95 89 97 95 95 96 92 93 94 95 94 94 96 96 94 96 97 95 80 80 81 82 82 82 82 82 82 82 81 81 81 81 80 80 81 80 80 80 80 80 80 79
93 96 93 97 97 97 95 91 90 90 91 91 89 93 95 96 93 93 97 90 81 81 82 82 82 82 82 82 82 81 81 81 80 80 81 80 80 80 80 80 80 80 80
91 87 95 95 97 94 91 92 91 94 90 92 86 95 97 94 91 85 94 97 89 81 82 83 83 82 82 82 82 81 81 80 80 80 80 80 80 80 80 80 80 79 79
89 90 93 96 95 91 92 92 92 85 89 89 91 95 95 96 95 92 96 96 99 97 84 83 83 82 82 82 82 82 81 80 80 80 80 80 80 80 79 79 79 79 79
91 90 94 96 91 95 93 93 89 92 89 91 92 95 94 96 95 99 94 94 94 96 99 83 82 82 83 84 83 82 81 81 80 79 80 79 79 79 79 79 79 78 78
91 90 92 89 89 90 92 90 87 92 92 91 94 93 94 96 98 96 92 95 94 97 98 93 90 88 82 84 83 82 82 82 81 80 79 78 78 78 78 78 78 78 78
91 89 93 88 90 89 89 88 89 85 91 91 89 89 91 92 93 95 97 97 94 95 94 93 93 93 88 82 81 81 82 82 81 81 80 79 78 78 77 77 77 77 77
90 91 88 91 89 93 87 87 86 91 91 91 89 89 84 87 92 95 96 95 93 96 93 92 90 90 92 91 83 79 80 81 81 81 80 78 77 77 77 77 77 77 77
92 90 90 88 89 90 91 87 87 85 89 89 86 87 84 85 87 91 89 93 90 94 94 91 90 89 89 89 85 82 78 79 80 79 79 78 78 77 77 77 77 76 75
92 92 90 89 87 93 90 89 90 88 85 87 88 89 87 86 84 82 89 90 91 91 91 93 91 89 88 91 82 79 79 79 80 80 79 79 78 78 78 78 77 77 77
91 92 91 90 89 91 90 88 87 85 89 89 89 88 86 88 87 86 84 86 90 92 92 91 93 93 90 90 89 81 79 78 78 79 78 78 78 78 78 78 78 78 78
93 89 91 90 89 90 89 89 87 85 86 87 90 89 88 86 86 86 85 86 87 90 92 92 90 92 92 91 89 78 78 77 77 77 77 77 78 78 78 78 78 78 78
94 92 89 88 90 88 90 88 86 86 85 86 83 89 91 90 91 90 88 88 86 90 89 92 92 91 92 92 91 81 77 76 75 75 75 75 76 76 77 77 78 78 78
95 93 90 90 89 90 89 88 89 88 87 86 84 85 90 91 91 90 88 87 84 86 88 85 92 92 91 91 88 77 86 74 73 72 72 73 73 73 74 75 75 75 76
96 93 91 89 90 89 89 87 89 87 87 85 85 84 86 91 91 91 90 89 86 82 84 85 87 88 91 91 88 89 88 76 72 71 70 70 70 71 71 72 72 72 72
91 93 90 90 89 89 88 87 89 88 85 87 88 84 83 90 89 90 90 90 89 86 83 90 88 89 89 91 86 86 87 78 73 71 69 68 68 69 69 70 70 70 70
90 89 90 89 89 89 88 86 86 88 84 84 85 84 82 85 88 89 89 89 88 87 84 88 89 87 83 84 87 86 88 87 89 71 70 68 67 68 68 69 69 69 69
89 89 89 89 89 89 88 86 86 88 85 83 84 83 82 85 81 84 87 84 86 87 86 79 86 86 81 84 84 83 86 91 90 74 71 68 67 67 67 67 67 68 67
88 89 89 88 88 89 89 88 87 87 87 86 85 83 83 83 80 86 84 85 85 84 83 84 84 86 87 86 83 82 83 84 87 75 71 69 68 68 67 66 66 65 64
88 88 88 88 89 89 90 90 88 87 87 87 87 86 85 84 82 81 82 81 82 82 81 83 84 85 84 85 84 84 82 80 84 90 80 74 73 70 68 66 66 65 63
88 88 88 89 89 91 92 89 89 88 86 86 87 86 86 84 78 80 85 81 78 79 82 82 82 84 84 83 79 84 82 81 77 84 82 85 86 85 83 67 74 68 64
88 87 87 88 88 92 81 74 84 89 88 86 85 86 86 78 76 71 71 72 76 75 74 83 83 81 80 81 83 83 81 80 77 86 80 82 82 83 84 87 69 67 64
87 86 87 87 87 88 73 71 73 89 89 87 86 86 86 88 78 82 69 67 69 69 72 78 78 77 79 80 80 77 75 73 77 77 77 78 82 79 84 87 69 66 63
86 86 86 87 87 89 70 68 71 86 87 88 87 86 86 86 83 80 78 74 74 75 75 80 80 80 81 80 78 77 75 74 75 78 79 72 79 80 84 84 69 66 63
86 86 87 86 86 87 66 64 69 86 86 87 88 87 86 85 75 68 79 75 72 75 72 66 67 68 66 67 73 79 71 70 71 73 75 74 79 79 81 81 82 68 66
86 90 88 88 80 86 69 61 67 86 82 83 84 82 71 80 67 63 76 74 72 72 78 75 74 67 68 69 64 75 74 69 75 75 78 77 77 78 74 81 81 81 80